Погода в Саккулове

Россия / Челябинская область     55°29′02″N   61°23′33″E
темп.,
°C
ветер,
м/с
пор.,
м/с
влажн.,
%
обл.,
%
осадки,
мм/ч
давл.,
гПа
погр.,
м
24 мая, вт
вт2423:00+8ю4997100 0.2 1003247
02:00+9ю499661 0.0 1004231
05:00+7ююз369756 0.0 1006122
08:00+12ююз348221 0.0 1007388
11:00+12ююв3691100 0.5 1007336
14:00+14вюв2589100 0.8 1008464
17:00+16зсз3389100 1.8 1008173
20:00+14ссв2293100 1.1 100927
25 мая, ср
ср2523:00+13ссв3697100 3.4 1009130
02:00+12в3597100 0.4 1008105
05:00+12ююв4984100 0.4 1007143
08:00+15ююв4978100 0.0 1007295
11:00+20ю5854100 0.0 1007737
14:00+23ю5104388 0.0 10061770
17:00+21юз3760100 0.0 1006331
20:00+18ю347494 0.1 100671
26 мая, чт
чт2623:00+10сз5108799 0.3 1009242
02:00+9сз499096 0.1 1009250
05:00+9сз3895100 3.1 1010350
08:00+8сз61095100 4.8 1011625
11:00+9ссз71082100 6.6 1011735
14:00+8ссз71080100 0.7 1012690
17:00+8ссз6148089 0.8 1010650
20:00+8сз41382100 0.0 1010429
27 мая, пт
пт2723:00+9сз6147399 0.0 1010556
02:00+6зсз5138216 0.0 1012335
05:00+5зсз512860 0.0 1013262
08:00+9зсз69740 0.0 1013566
11:00+13зсз685535 0.0 10131689
14:00+13з576292 0.0 10141323
17:00+14зсз376141 0.0 10141317
20:00+13ю336848 0.0 101438
28 мая, сб
сб2823:00+9ю457277 0.0 101459
02:00+9ююв4680100 0.0 101498
05:00+8ю488996 0.0 1014151
08:00+13ю69746 0.0 1014400
11:00+17ююз68619 0.0 10131291
14:00+18ююз675793 0.4 10131810
17:00+18ююз4663100 0.8 1013964
20:00+16ююз337414 0.0 101439